GPS BIIF-7 (40105 NORAD) Tracking and Keplerian Element Data

This shows tracking and keplerian element data for the satellite.

Feedback or suggestion? Click here.




ElementValue
Catalog40105
NameGPS BIIF-7
Epoch Orbit2811
Epoch Day198.79142815
Epoch Year2018
RAAN203.9762
Inclination54.5881
Eccentricity0.0006739
Argument of Perigee110.1322
Mean Anonmoly249.9542
Mean Motion2.00573779
Decay Rate5.6E-07
L11 40105U 14045A 18198.79142815 .00000056 00000-0 00000-0 0 9999
L22 40105 54.5881 203.9762 0006739 110.1322 249.9542 2.00573779 28114

Live tracking and technical data element details for GPS BIIF-7 (NORAD 40105). GPS BIIF-7 can be tracked NOW for your location showing map with azimuth and elevation plus other details from your city location.

Track the satellite on the map from your city or location and see movement details for azimuth, elevation, latitude, longitude, range, height, and movement on the map or in text.







IsCatalogInMostPopularTable: catalog: 40105, numindb: 58
Update: records affected: 1



GetName: 40105 GPS BIIF-7

Hit Count: updated at: Fri, 20 Jul 2018 20:37:17 GMT